Atlantic, IA

8:07 PM CST on February 06, 2016 (GMT -0600)
Atlantic Municipal

Weather History for KAIO - October, 2011

Change the Weather History Date:

Saturday, October 8, 2011

  Actual Average Record
Temperature  
Mean Temperature 72 °F -  
Max Temperature 80 °F 66 °F 82 °F (2003)
Min Temperature 64 °F 41 °F 19 °F (2000)
Cooling Degree Days 7    
Growing Degree Days 22 (Base 50)    
Moisture  
Dew Point 55 °F    
Average Humidity 55    
Maximum Humidity 78    
Minimum Humidity 42    
Precipitation  
Precipitation 0.00 in - - ()
Sea Level Pressure  
Sea Level Pressure 30.07 in    
Wind  
Wind Speed 10 mph (South)    
Max Wind Speed 22 mph    
Max Gust Speed 29 mph    
Visibility 10 miles    
Events Rain    
Averages and records for this station are not official NWS values.
T = Trace of Precipitation, MM = Missing Value Source: NWS Daily Summary

Daily Weather History Graph

Daily Weather History Graph

Search for Another Location

Airport or City:

Trip Planner

Search our weather history database for the weather conditions in past years. The results will help you decide how hot, cold, wet, or windy it might be!

Date:

Astronomy

Oct. 08, 2011 Rise Set
Actual Time 7:24 AM CDT 6:50 PM CDT
Civil Twilight 6:56 AM CDT 7:18 PM CDT
Nautical Twilight 6:24 AM CDT 7:50 PM CDT
Astronomical Twilight 5:52 AM CDT 8:22 PM CDT
Moon 5:03 PM CDT (10/8) 4:10 AM CDT (10/8)
Length of Visible Light 12h 21m
Length of Day
11h 26m
Waxing Gibbous, 90% of the Moon is Illuminated
Oct 8
Waxing Gibbous
Oct 11
Full
Oct 19
Last Quarter
Oct 26
New
Nov 2
First Quarter

Hourly Weather History & Observations

Time (CDT) Temp. Heat Index Dew Point Humidity Pressure Visibility Wind Dir Wind Speed Gust Speed Precip Events Conditions
12:15 AM 73.4 °F - 53.6 °F 50% 30.03 in 10.0 mi SSE 12.7 mph 19.6 mph N/A   Clear
12:35 AM 73.4 °F - 53.6 °F 50% 30.03 in 10.0 mi SSE 12.7 mph 19.6 mph N/A   Clear
1:15 AM 71.6 °F - 53.6 °F 53% 30.04 in 10.0 mi South 10.4 mph - N/A   Clear
1:35 AM 71.6 °F - 51.8 °F 50% 30.04 in 10.0 mi South 9.2 mph - N/A   Clear
2:15 AM 69.8 °F - 51.8 °F 53% 30.04 in 10.0 mi SSE 6.9 mph - N/A   Clear
2:35 AM 69.8 °F - 51.8 °F 53% 30.04 in 10.0 mi SSE 6.9 mph - N/A   Clear
2:55 AM 69.8 °F - 51.8 °F 53% 30.04 in 10.0 mi SSE 8.1 mph - N/A   Clear
3:15 AM 68.0 °F - 51.8 °F 56% 30.04 in 10.0 mi SSE 6.9 mph - N/A   Clear
3:35 AM 68.0 °F - 51.8 °F 56% 30.04 in 10.0 mi SSE 8.1 mph - N/A   Clear
3:55 AM 66.2 °F - 51.8 °F 60% 30.04 in 10.0 mi SSE 5.8 mph - N/A   Clear
4:15 AM 66.2 °F - 51.8 °F 60% 30.04 in 10.0 mi SSE 6.9 mph - N/A   Clear
4:35 AM 66.2 °F - 51.8 °F 60% 30.05 in 10.0 mi South 8.1 mph - N/A   Clear
4:55 AM 66.2 °F - 51.8 °F 60% 30.04 in 10.0 mi South 11.5 mph - N/A   Clear
5:15 AM 66.2 °F - 51.8 °F 60% 30.04 in 10.0 mi South 9.2 mph - N/A   Clear
5:35 AM 66.2 °F - 51.8 °F 60% 30.05 in 10.0 mi South 10.4 mph - N/A   Clear
5:55 AM 66.2 °F - 51.8 °F 60% 30.05 in 10.0 mi South 11.5 mph 17.3 mph N/A   Clear
6:15 AM 66.2 °F - 51.8 °F 60% 30.05 in 10.0 mi South 9.2 mph - N/A   Clear
6:35 AM 68.0 °F - 51.8 °F 56% 30.06 in 10.0 mi South 12.7 mph 17.3 mph N/A   Scattered Clouds
6:55 AM 68.0 °F - 51.8 °F 56% 30.06 in 10.0 mi SSE 9.2 mph - N/A   Overcast
7:15 AM 68.0 °F - 51.8 °F 56% 30.07 in 10.0 mi South 8.1 mph 18.4 mph N/A   Overcast
7:35 AM 68.0 °F - 51.8 °F 56% 30.07 in 10.0 mi SSE 12.7 mph 21.9 mph N/A   Overcast
7:55 AM 68.0 °F - 51.8 °F 56% 30.07 in 10.0 mi South 11.5 mph 17.3 mph N/A   Overcast
8:15 AM 69.8 °F - 51.8 °F 53% 30.08 in 10.0 mi South 15.0 mph 19.6 mph N/A   Overcast
8:35 AM 69.8 °F - 53.6 °F 56% 30.08 in 10.0 mi South 13.8 mph 18.4 mph N/A   Overcast
8:55 AM 69.8 °F - 53.6 °F 56% 30.09 in 10.0 mi South 15.0 mph 21.9 mph N/A   Overcast
9:15 AM 69.8 °F - 53.6 °F 56% 30.09 in 10.0 mi South 15.0 mph 21.9 mph N/A   Overcast
9:35 AM 69.8 °F - 53.6 °F 56% 30.10 in 10.0 mi South 13.8 mph 25.3 mph N/A   Mostly Cloudy
9:55 AM 69.8 °F - 53.6 °F 56% 30.10 in 10.0 mi SSE 13.8 mph 20.7 mph N/A   Mostly Cloudy
10:15 AM 71.6 °F - 53.6 °F 53% 30.11 in 10.0 mi South 15.0 mph 23.0 mph N/A   Mostly Cloudy
10:35 AM 73.4 °F - 55.4 °F 53% 30.10 in 10.0 mi SSE 18.4 mph 24.2 mph N/A   Scattered Clouds
11:15 AM 75.2 °F - 55.4 °F 50% 30.10 in 10.0 mi South 18.4 mph 24.2 mph N/A   Scattered Clouds
11:35 AM 78.8 °F - 55.4 °F 44% 30.10 in 10.0 mi South 21.9 mph 27.6 mph N/A   Scattered Clouds
11:55 AM 78.8 °F - 55.4 °F 44% 30.10 in 10.0 mi South 19.6 mph 26.5 mph N/A   Clear
12:15 PM 80.6 °F 80.5 °F 55.4 °F 42% 30.09 in 10.0 mi South 19.6 mph 28.8 mph N/A   Clear
12:35 PM 80.6 °F 80.5 °F 55.4 °F 42% 30.10 in 10.0 mi SSE 17.3 mph 21.9 mph N/A   Clear
12:55 PM 80.6 °F 80.5 °F 55.4 °F 42% 30.10 in 10.0 mi South 15.0 mph - N/A   Scattered Clouds
1:15 PM 80.6 °F 80.8 °F 57.2 °F 45% 30.10 in 10.0 mi South 20.7 mph 25.3 mph N/A   Scattered Clouds
1:35 PM 80.6 °F 80.5 °F 55.4 °F 42% 30.09 in 10.0 mi South 18.4 mph 24.2 mph N/A   Mostly Cloudy
2:15 PM 80.6 °F 80.5 °F 55.4 °F 42% 30.08 in 10.0 mi South 15.0 mph 23.0 mph N/A   Scattered Clouds
2:35 PM 80.6 °F 80.5 °F 55.4 °F 42% 30.07 in 10.0 mi SSW 15.0 mph 21.9 mph N/A   Mostly Cloudy
2:55 PM 80.6 °F 80.5 °F 55.4 °F 42% 30.07 in 10.0 mi South 16.1 mph 20.7 mph N/A   Overcast
3:15 PM 80.6 °F 80.5 °F 55.4 °F 42% 30.07 in 10.0 mi SSW 15.0 mph 21.9 mph N/A   Overcast
3:35 PM 80.6 °F 80.5 °F 55.4 °F 42% 30.07 in 10.0 mi South 15.0 mph - N/A   Overcast
3:55 PM 80.6 °F 80.5 °F 55.4 °F 42% 30.07 in 10.0 mi SSW 11.5 mph - N/A   Overcast
4:15 PM 78.8 °F - 57.2 °F 47% 30.07 in 10.0 mi SSW 9.2 mph - N/A Rain Light Rain
4:35 PM 78.8 °F - 57.2 °F 47% 30.07 in 10.0 mi SSW 8.1 mph - N/A   Mostly Cloudy
4:55 PM 78.8 °F - 57.2 °F 47% 30.07 in 10.0 mi SW 10.4 mph - N/A   Mostly Cloudy
5:15 PM 75.2 °F - 60.8 °F 61% 30.07 in 10.0 mi SW 5.8 mph 9.2 mph N/A   Mostly Cloudy
5:35 PM 75.2 °F - 60.8 °F 61% 30.07 in 10.0 mi Calm Calm - N/A   Mostly Cloudy
5:55 PM 75.2 °F - 60.8 °F 61% 30.07 in 10.0 mi Calm Calm - N/A   Mostly Cloudy
6:15 PM 75.2 °F - 60.8 °F 61% 30.07 in 10.0 mi Calm Calm - N/A   Mostly Cloudy
6:35 PM 75.2 °F - 60.8 °F 61% 30.07 in 10.0 mi Calm Calm - N/A   Mostly Cloudy
6:55 PM 73.4 °F - 60.8 °F 65% 30.08 in 10.0 mi Calm Calm - N/A   Mostly Cloudy
7:15 PM 69.8 °F - 60.8 °F 73% 30.09 in 10.0 mi Calm Calm - N/A   Scattered Clouds
7:35 PM 68.0 °F - 60.8 °F 78% 30.10 in 10.0 mi Calm Calm - N/A   Mostly Cloudy
7:55 PM 68.0 °F - 60.8 °F 78% 30.11 in 10.0 mi Calm Calm - N/A   Mostly Cloudy
8:15 PM 66.2 °F - 59.0 °F 78% 30.11 in 10.0 mi Calm Calm - N/A   Scattered Clouds
8:35 PM 66.2 °F - 59.0 °F 78% 30.11 in 10.0 mi Calm Calm - N/A   Mostly Cloudy
9:15 PM 64.4 °F - 55.4 °F 73% 30.12 in 10.0 mi Calm Calm - N/A   Scattered Clouds
9:35 PM 64.4 °F - 57.2 °F 77% 30.13 in 10.0 mi Calm Calm - N/A   Clear
9:55 PM 62.6 °F - 57.2 °F 82% 30.13 in 10.0 mi Calm Calm - N/A   Scattered Clouds
10:15 PM 64.4 °F - 57.2 °F 77% 30.13 in 10.0 mi Calm Calm - N/A   Scattered Clouds
10:35 PM 62.6 °F - 55.4 °F 77% 30.13 in 10.0 mi Calm Calm - N/A   Scattered Clouds
10:55 PM 64.4 °F - 57.2 °F 77% 30.14 in 10.0 mi Calm Calm - N/A   Mostly Cloudy
11:15 PM 69.8 °F - 55.4 °F 60% 30.13 in 10.0 mi SE 6.9 mph - N/A   Scattered Clouds
11:35 PM 69.8 °F - 55.4 °F 60% 30.13 in 10.0 mi SE 9.2 mph - N/A   Clear
11:55 PM 69.8 °F - 53.6 °F 56% 30.13 in 10.0 mi SSE 11.5 mph 16.1 mph N/A   Clear